Stations météo

Publicité
Le Touquet, France (7003): Température de l'air & dewpoint: 12.08.2019 14:00:00 - 18.08.2019 14:00:00 (CEST)Le Touquet, France (7003): Température de l'air 5cm: 12.08.2019 14:00:00 - 18.08.2019 14:00:00 (CEST)Le Touquet, France (7003): Vitesse du vent & gusts: 12.08.2019 14:00:00 - 18.08.2019 14:00:00 (CEST)Le Touquet, France (7003): Direction du vent: 12.08.2019 14:00:00 - 18.08.2019 14:00:00 (CEST)Le Touquet, France (7003): reduced air pressure: 12.08.2019 14:00:00 - 18.08.2019 14:00:00 (CEST)Le Touquet, France (7003): visibility: 12.08.2019 14:00:00 - 18.08.2019 14:00:00 (CEST)Le Touquet, France (7003): Ensoleillement: 12.08.2019 14:00:00 - 18.08.2019 14:00:00 (CEST)Le Touquet, France (7003): Quantités de précipitations: 12.08.2019 14:00:00 - 18.08.2019 14:00:00 (CEST)
Date & Time tt [°C] td [°C] tt 5cm [°C] ff [km/h] ff [knt] fx [km/h] fx [knt] dd ppp [hPa] vv [km] sd [min] rr [mm]
18.08.2019 14:00:00 18,2 15,1 - 21 11 42 23 WSW 1007,5 19 - -
18.08.2019 13:00:00 17,9 14,8 17,5 14 8 25 13 WSW 1007,0 53 1 0,0
18.08.2019 12:00:00 16,4 14,9 17,2 11 6 20 11 WSW 1006,5 55 0 0,0
18.08.2019 11:00:00 15,4 14,6 14,9 4 2 21 11 SSE 1005,2 59 0 0,0
18.08.2019 10:00:00 14,8 14,5 14,6 11 6 21 11 NNW 1004,8 5 0 0,4
18.08.2019 09:00:00 14,6 14,3 14,5 15 8 27 14 N 1004,4 1,5 0 1,1
18.08.2019 08:00:00 14,9 14,7 14,5 5 3 12 7 SSE 1003,9 11 0 0,2
18.08.2019 07:00:00 14,8 14,5 14,4 6 3 16 8 SSE 1004,1 9 0 1,0
18.08.2019 06:00:00 15,1 14,6 14,5 8 4 16 9 SSE 1004,7 5 0 3,0
18.08.2019 05:00:00 15,2 14,7 14,7 6 3 27 15 SW 1005,9 1,4 0 10,1
18.08.2019 04:00:00 16,5 15,0 15,5 5 3 19 10 SSW 1006,1 2,6 0 0,6
18.08.2019 03:00:00 17,3 15,3 16,0 8 5 30 16 SW 1006,6 19 0 0,0
18.08.2019 02:00:00 17,8 14,3 16,4 12 7 29 16 W 1006,9 20 0 0,0
18.08.2019 01:00:00 17,7 14,6 16,8 13 7 34 18 WSW 1007,4 18 0 0,0
18.08.2019 00:00:00 17,7 14,8 17,1 16 8 32 17 WSW 1007,6 17 0 0,0
17.08.2019 23:00:00 17,9 14,8 17,1 15 8 32 17 W 1008,1 19 0 0,0
17.08.2019 22:00:00 17,7 15,0 16,9 15 8 35 19 W 1008,0 18 0 0,0
17.08.2019 21:00:00 17,8 14,9 17,2 16 9 37 20 WSW 1008,2 18 0 0,0
17.08.2019 20:00:00 17,7 14,8 17,5 16 9 37 20 WSW 1007,8 19 0 0,0
17.08.2019 19:00:00 18,0 14,9 18,4 13 7 32 17 WSW 1007,9 17 0 0,0
17.08.2019 18:00:00 18,0 14,9 19,0 15 8 34 18 W 1008,3 18 0 0,0
17.08.2019 17:00:00 18,1 14,6 19,6 18 10 38 20 W 1008,4 18 0 0,0
17.08.2019 16:00:00 18,6 15,3 19,7 16 8 40 22 W 1008,3 18 0 0,0
17.08.2019 15:00:00 18,0 15,1 18,4 17 9 35 19 W 1008,1 18 0 0,0
17.08.2019 14:00:00 17,8 15,4 18,8 14 8 30 16 W 1007,8 19 0 0,0
17.08.2019 13:00:00 17,0 15,5 17,1 10 6 34 18 W 1007,8 20 0 0,8
17.08.2019 12:00:00 17,8 17,2 18,2 16 8 48 26 W 1007,6 4,2 0 2,2
17.08.2019 11:00:00 18,7 18,2 18,5 19 10 41 22 SW 1006,8 5 0 0,2
17.08.2019 10:00:00 18,7 18,2 18,2 18 10 40 22 SW 1007,1 3,1 0 0,0
17.08.2019 09:00:00 18,4 17,9 17,7 18 10 42 23 SW 1007,0 3,6 0 0,2
17.08.2019 08:00:00 17,9 17,6 17,2 18 10 45 24 SW 1006,8 3,1 0 0,4
17.08.2019 07:00:00 17,6 17,1 17,0 19 10 46 25 SW 1006,7 3,0 0 0,4
17.08.2019 06:00:00 17,5 16,9 16,9 19 10 44 24 SW 1006,8 2,3 0 0,0
17.08.2019 05:00:00 17,5 16,7 16,8 22 12 55 30 SW 1006,9 7 0 0,0
17.08.2019 04:00:00 17,9 16,1 16,5 26 14 52 28 SW 1007,0 20 0 0,0
17.08.2019 03:00:00 17,2 16,2 16,3 20 11 49 27 SW 1007,5 13 0 0,2
17.08.2019 02:00:00 17,5 15,3 15,9 18 10 47 26 SW 1007,9 13 0 0,0
17.08.2019 01:00:00 16,8 15,0 15,7 9 5 21 12 S 1008,4 56 0 0,0
17.08.2019 00:00:00 16,7 15,2 15,6 10 6 21 12 S 1009,1 52 0 0,0
16.08.2019 23:00:00 16,8 15,8 15,9 9 5 22 12 S 1009,7 20 0 0,6
16.08.2019 22:00:00 16,8 16,0 16,0 7 4 13 7 SSE 1010,6 12 0 1,2
16.08.2019 21:00:00 17,1 15,6 16,0 8 4 12 7 SSE 1011,1 19 0 0,2
16.08.2019 20:00:00 18,3 14,6 17,3 6 3 17 9 S 1011,3 19 0 0,0
16.08.2019 19:00:00 18,8 14,1 19,0 10 6 26 14 WSW 1011,9 60 0 0,0
16.08.2019 18:00:00 19,1 14,1 20,5 11 6 29 16 W 1012,5 54 0 0,0
16.08.2019 17:00:00 19,1 15,4 20,8 12 7 35 19 W 1013,2 47 0 0,0
16.08.2019 16:00:00 19,5 15,4 20,3 10 5 34 19 W 1013,1 20 0 0,0
16.08.2019 15:00:00 20,9 15,4 24,8 16 9 34 18 SW 1014,0 20 7 0,0
16.08.2019 14:00:00 20,9 14,1 24,2 18 10 44 24 SW 1014,8 20 47 0,0
16.08.2019 13:00:00 19,9 13,4 22,9 19 10 37 20 SW 1015,9 44 21 0,0
16.08.2019 12:00:00 19,5 13,4 22,6 18 10 38 21 SW 1016,2 60 23 0,0
16.08.2019 11:00:00 18,8 14,7 20,2 14 8 35 19 SW 1016,5 33 21 0,0
16.08.2019 10:00:00 18,0 15,3 18,6 16 9 40 21 SW 1017,0 19 25 0,0
16.08.2019 09:00:00 18,0 14,1 17,2 14 8 30 16 WSW 1017,2 46 2 0,0
16.08.2019 08:00:00 17,3 15,1 16,4 12 7 25 14 WSW 1017,2 20 0 0,0
16.08.2019 07:00:00 17,0 15,0 14,4 11 6 32 17 WSW 1017,3 20 0 0,0
16.08.2019 06:00:00 15,6 14,8 11,6 5 3 10 5 SW 1017,6 10 0 0,0
16.08.2019 05:00:00 15,9 14,6 13,3 5 3 19 11 WSW 1017,8 16 0 0,0
16.08.2019 04:00:00 16,9 15,6 15,2 9 5 22 12 W 1018,2 14 0 0,0
16.08.2019 03:00:00 17,2 15,2 15,2 9 5 28 15 W 1018,4 18 0 0,0
16.08.2019 02:00:00 17,4 15,6 15,8 9 5 31 17 WNW 1018,2 15 0 0,0
16.08.2019 01:00:00 17,4 15,7 16,3 16 8 48 26 W 1018,2 13 0 0,0
16.08.2019 00:00:00 17,5 15,3 16,4 19 10 42 23 W 1018,3 14 0 0,0
15.08.2019 23:00:00 17,7 15,3 16,4 16 9 39 21 W 1017,6 13 0 0,0
15.08.2019 22:00:00 18,0 14,9 17,0 19 10 44 24 W 1017,5 16 0 0,0
15.08.2019 21:00:00 18,2 14,5 17,8 23 12 57 31 W 1017,2 18 0 0,0
15.08.2019 20:00:00 18,3 14,4 18,2 24 13 54 29 W 1016,7 19 24 0,0
15.08.2019 19:00:00 19,3 14,5 20,5 22 12 54 29 W 1016,0 15 60 0,0
15.08.2019 18:00:00 19,6 15,0 22,3 27 15 62 34 W 1015,7 14 60 0,0
15.08.2019 17:00:00 20,0 15,6 23,6 30 16 62 33 W 1015,2 17 57 0,0
15.08.2019 16:00:00 19,5 15,4 23,9 29 16 66 35 W 1014,9 16 58 0,0
15.08.2019 15:00:00 19,8 15,6 22,6 27 15 60 32 W 1014,5 16 46 0,0
15.08.2019 14:00:00 19,5 14,1 23,3 27 15 55 30 W 1013,9 19 46 0,0
15.08.2019 13:00:00 19,6 14,2 21,4 26 14 59 32 WNW 1013,2 20 43 0,0
15.08.2019 12:00:00 18,4 15,1 20,8 23 13 51 28 W 1012,9 20 20 0,0
15.08.2019 11:00:00 18,6 14,9 17,1 25 13 52 28 WNW 1012,5 19 6 0,0
15.08.2019 10:00:00 17,5 15,5 17,1 22 12 53 29 W 1012,1 8 0 0,2
15.08.2019 09:00:00 18,1 15,5 17,6 20 11 48 26 W 1011,6 16 0 0,0
15.08.2019 08:00:00 17,7 15,7 17,1 21 11 48 26 W 1011,2 11 0 0,0
15.08.2019 07:00:00 17,5 15,7 17,1 19 11 45 25 W 1010,6 12 0 0,0
15.08.2019 06:00:00 17,7 15,9 17,2 25 14 53 29 W 1010,0 12 0 0,0
15.08.2019 05:00:00 17,7 16,0 17,3 22 12 47 26 W 1009,8 13 0 0,0
15.08.2019 04:00:00 17,8 16,3 17,2 19 10 54 29 W 1010,0 16 0 0,0
15.08.2019 03:00:00 17,8 16,3 16,9 23 12 51 28 W 1010,3 18 0 0,0
15.08.2019 02:00:00 17,8 16,3 16,4 21 11 54 29 W 1010,6 17 0 0,2
15.08.2019 01:00:00 18,1 16,9 17,0 21 12 49 27 WSW 1010,6 20 0 0,0
15.08.2019 00:00:00 17,7 16,7 16,3 17 9 36 20 SW 1010,8 37 0 0,2
14.08.2019 23:00:00 16,9 16,3 15,9 19 10 41 22 SSW 1011,2 10 0 0,2
14.08.2019 22:00:00 16,4 15,8 15,9 9 5 26 14 S 1011,6 6 0 0,2
14.08.2019 21:00:00 16,6 15,8 16,0 13 7 32 17 S 1011,6 16 0 0,4
14.08.2019 20:00:00 16,7 15,9 16,2 12 7 27 14 SSW 1012,2 3,3 0 0,6
14.08.2019 19:00:00 17,0 15,9 16,5 6 3 34 18 S 1012,9 15 0 1,0
14.08.2019 18:00:00 17,8 15,6 16,7 15 8 32 17 S 1013,5 11 0 0,4
14.08.2019 17:00:00 18,3 15,2 16,9 8 4 27 15 SSE 1014,0 19 0 0,2
14.08.2019 16:00:00 19,2 14,9 17,4 12 6 27 15 S 1014,7 55 3 0,0
14.08.2019 15:00:00 17,4 15,6 16,6 8 4 23 12 SSW 1015,8 3,8 0 0,2
14.08.2019 14:00:00 17,1 15,8 16,0 9 5 23 12 S 1016,4 8 0 1,0
14.08.2019 13:00:00 17,4 13,7 16,9 16 8 27 15 S 1016,8 18 3 0,0
14.08.2019 12:00:00 17,7 14,6 20,1 14 8 29 16 S 1017,1 30 0 0,0
14.08.2019 11:00:00 17,1 15,4 16,2 12 7 27 15 S 1017,4 20 0 0,0
14.08.2019 10:00:00 16,4 15,3 17,1 10 5 22 12 S 1017,6 17 28 0,0
14.08.2019 09:00:00 14,7 14,2 13,2 12 7 19 11 SSE 1018,0 8 24 0,2
14.08.2019 08:00:00 13,4 13,1 12,8 8 4 21 11 SSE 1018,1 4,3 7 1,2
14.08.2019 07:00:00 12,7 12,1 11,7 9 5 13 7 SE 1018,0 19 0 0,0
14.08.2019 06:00:00 12,3 11,7 11,6 8 4 12 7 SE 1018,1 35 0 0,0
14.08.2019 05:00:00 12,3 11,4 11,6 10 5 16 9 SE 1018,3 48 0 0,0
14.08.2019 04:00:00 15,7 12,4 13,5 8 5 19 11 WSW 1018,5 60 0 0,0
14.08.2019 03:00:00 15,4 12,5 13,3 6 3 19 11 WSW 1018,7 42 0 0,0
14.08.2019 02:00:00 15,7 12,4 12,9 9 5 19 10 W 1018,9 60 0 0,0
14.08.2019 01:00:00 15,4 12,2 13,2 6 3 19 11 W 1019,1 60 0 0,0
14.08.2019 00:00:00 15,3 11,5 13,0 6 3 19 10 W 1019,3 60 0 0,0
13.08.2019 23:00:00 15,9 11,9 14,4 10 5 24 13 W 1019,5 60 0 0,0
13.08.2019 22:00:00 16,0 12,2 14,5 9 5 23 12 W 1019,5 60 0 0,0
13.08.2019 21:00:00 16,6 12,1 15,9 10 5 30 16 W 1019,3 60 35 0,0
13.08.2019 20:00:00 17,2 12,1 17,1 13 7 30 16 W 1019,0 59 37 0,0
13.08.2019 19:00:00 17,6 11,2 18,8 15 8 38 21 W 1019,0 42 53 0,0
13.08.2019 18:00:00 18,2 12,0 20,0 18 10 37 20 W 1019,0 41 49 0,0
13.08.2019 17:00:00 18,2 12,0 21,6 16 9 36 19 W 1019,1 46 54 0,0
13.08.2019 16:00:00 17,9 12,3 22,4 14 8 35 19 W 1019,2 55 43 0,0
13.08.2019 15:00:00 17,7 11,7 21,7 17 9 34 18 WSW 1019,4 60 24 0,0
13.08.2019 14:00:00 17,4 12,1 17,3 14 8 31 17 WSW 1019,5 60 6 0,0
13.08.2019 13:00:00 15,8 11,6 16,6 13 7 22 12 SW 1019,5 59 0 0,0
13.08.2019 12:00:00 15,4 11,6 14,8 10 5 25 13 WNW 1019,7 56 0 0,2
13.08.2019 11:00:00 15,1 12,8 14,5 13 7 37 20 W 1019,4 19 0 0,2
13.08.2019 10:00:00 16,4 11,3 18,8 14 8 30 16 W 1019,2 56 14 0,0
13.08.2019 09:00:00 16,7 11,2 15,6 11 6 24 13 W 1019,1 55 58 0,0
13.08.2019 08:00:00 15,6 11,8 13,3 11 6 27 15 W 1018,6 34 22 0,0
13.08.2019 07:00:00 15,0 10,6 11,9 10 5 23 12 WNW 1018,6 59 0 0,0
13.08.2019 06:00:00 14,7 10,1 12,1 10 5 27 15 NW 1018,3 60 0 0,0
13.08.2019 05:00:00 15,0 11,0 11,9 16 9 30 16 WNW 1018,3 60 0 0,0
13.08.2019 04:00:00 15,2 11,0 12,0 11 6 31 17 WNW 1018,2 60 0 0,0
13.08.2019 03:00:00 15,2 11,8 8,6 11 6 27 15 WNW 1018,1 60 0 0,0
13.08.2019 02:00:00 10,9 10,6 9,1 5 3 12 6 SSE 1018,3 14 0 0,2
13.08.2019 01:00:00 11,9 11,6 9,6 7 4 11 6 SSE 1018,2 20 0 0,0
13.08.2019 00:00:00 12,0 11,5 7,4 6 3 8 4 SSE 1018,0 17 0 0,0
12.08.2019 23:00:00 12,8 11,7 7,7 0 0 8 5 N 1017,8 13 0 0,0
12.08.2019 22:00:00 13,5 11,7 10,3 4 2 49 26 NW 1017,3 7 0 1,8
12.08.2019 21:00:00 16,6 11,9 16,0 17 9 36 20 WNW 1016,5 60 0 0,0
12.08.2019 20:00:00 16,9 12,0 16,9 13 7 29 16 W 1015,9 57 16 0,0
12.08.2019 19:00:00 16,8 12,3 17,3 12 7 33 18 W 1015,4 59 15 0,0
12.08.2019 18:00:00 17,9 13,8 16,3 16 9 36 19 WNW 1015,4 52 22 0,8
12.08.2019 17:00:00 17,9 12,8 21,3 21 11 39 21 W 1015,3 50 27 0,0
12.08.2019 16:00:00 18,5 13,4 23,2 16 9 39 21 W 1015,1 37 44 0,0
12.08.2019 15:00:00 18,8 13,4 23,1 15 8 34 18 WSW 1014,8 18 32 0,0
12.08.2019 14:00:00 18,6 13,2 24,6 14 8 35 19 W 1015,1 43 49 0,0

tt = Température de l'air
td = dewpoint
tt 5cm = Température de l'air 5cm
ff = Vitesse du vent
fx = gusts
dd = Direction du vent
ppp = reduced air pressure
vv = visibility
sd = Ensoleillement
rr = Quantités de précipitations

stations d'obs. à proximité